User: anonymous   Login
Location: Unspecified
(0.0000°N, 0.0000°E)
Time: 23:29:48
(UTC+00:00)
Language:

WGS F2 (USA 204) - Orbit

View from above orbital plane
View from above orbital plane
View from above satellite
View from above satellite

Ground track
Ground track

The orbit data is extracted from the following two-line orbital elements,

1 34713U 09017A   16219.06336933 0.00000000  00000-0  00000-0 0    00
2 34713   0.0300  38.0381 0005459  64.0019 296.0495  1.00270000    04
Epoch (UTC): 06 August 2016 01:31:15
Eccentricity: 0.0005459
inclination: 0.0300°
perigee height: 35764 km
apogee height: 35810 km
right ascension of ascending node: 38.0381°
argument of perigee: 64.0019°
revolutions per day: 1.00270000
mean anomaly at epoch: 296.0495°
orbit number at epoch: 0

The dashed part of the orbit path shows where the satellite is in the earth's shadow,  

DLR